User: anonymous   Login
Location: ?astrovice
(49.6513°N, 14.9287°E)
Time: 15:58:51
(UTC+00:00)
Language:

RESURS DK-1 - Orbit

View from above orbital plane
View from above orbital plane
View from above satellite
View from above satellite

Ground track
Ground track

The orbit data is extracted from the following two-line orbital elements,

1 29228U 06021A   21164.22182614  .00000112  00000-0  15770-4 0  9990
2 29228  69.9358 349.4788 0007669 268.8596  91.1686 15.02701818826932
Epoch (UTC): 13 June 2021 05:19:25
Eccentricity: 0.0007669
inclination: 69.9358°
perigee height: 553 km
apogee height: 564 km
right ascension of ascending node: 349.4788°
argument of perigee: 268.8596°
revolutions per day: 15.02701818
mean anomaly at epoch: 91.1686°
orbit number at epoch: 82693

The dashed part of the orbit path shows where the satellite is in the earth's shadow,  

DLR